Погода в Тайтурке

Россия / Иркутская область     52°52′01″N   103°27′23″E
темп.,
°C
ветер,
м/с
пор.,
м/с
влажн.,
%
обл.,
%
осадки,
мм/ч
давл.,
гПа
погр.,
м
3 марта, ср
ср323:00−11сз2496100 1.4 1013169
02:00−14зсз129798 1.7 101321
05:00−14сз229794 0.1 101352
08:00−13зсз269697 0.4 1015265
11:00−11сз4691100 0.3 1015508
14:00−10сз3584100 0.4 1016729
17:00−11ссз3589100 0.2 1018618
20:00−15сз2596100 0.4 1022161
4 марта, чт
чт423:00−18сз2592100 0.0 1026138
02:00−22сз239276 0.0 102931
05:00−24сз238976 0.0 103137
08:00−25ссз228988 0.0 103420
11:00−19с117992 0.0 1035272
14:00−13ссв117561 0.0 1034526
17:00−13вюв127954 0.0 1033446
20:00−19вюв229438 0.0 103623
5 марта, пт
пт523:00−21вюв349125 0.0 103780
02:00−22вюв369222 0.0 1036136
05:00−21вюв310930 0.0 1035218
08:00−20вюв410940 0.0 1034239
11:00−13юв59885 0.0 1031363
14:00−8юв59862 0.0 1027462
17:00−9вюв598986 0.0 1025325
20:00−13вюв5118988 0.0 1027264
6 марта, сб
сб623:00−15вюв410920 0.0 1026237
02:00−15вюв369450 0.0 1027196
05:00−17юв229698 0.0 102825
08:00−18юв229459 0.0 103022
11:00−11вюв248933 0.0 1028188
14:00−4юв248846 0.0 1025261
17:00−1вюв24885 0.0 1023265
20:00−6в22922 0.0 102521
7 марта, вс
вс723:00−9юв23920 0.0 102528
02:00−11юв23890 0.0 102536
05:00−12юв23880 0.0 102324
08:00−12юв238935 0.0 102330
11:00−5юв2481100 0.0 1020243
14:00−1юв239150 0.0 1018306
17:000юв239712 0.0 1018233
20:00−4ююв119838 0.0 102121